Effective Sunday, March 17, 2024, the National Weather Service National Data Buoy Center will discontinue its Dial-A-Buoy Interactive Voice Response system. For more information, see Service Change Notice 24-06 (PDF).

Station PPXC1 - 9414847 - Point Potrero, Richmond, CA Image indicating link to RSS feed of recent meteorological observations for station PPXC1


Conditions at PPXC1 as of
(1:54 pm PST)
2154 GMT on 02/27/2024:
     

Click on the graph icon in the table below to see a time series plot of the last five days of that observation.

5-day plot - Wind Direction Wind Direction (WDIR): N ( 350 deg true )
5-day plot - Wind Speed Wind Speed (WSPD): 7.0 kts
5-day plot - Wind Gust Wind Gust (GST): 9.9 kts
5-day plot - Atmospheric Pressure Atmospheric Pressure (PRES):30.09 in
5-day plot - Air Temperature Air Temperature (ATMP): 60.4 °F
5-day plot - Wind Speed at 10 Meters Wind Speed at 10 meters (WSPD10M): 7.8 kts
5-day plot - Wind Speed at 20 Meters Wind Speed at 20 meters (WSPD20M): 7.8 kts
5-day plot -  Wind Speed, Wind Gust and Atmospheric Pressure Combined plot of Wind Speed, Gust, and Air Pressure
NOS Water Level Observation Network Water Level
Previous observations
TIME
(PST)
5-day plot - Wind Direction
WDIR
 
5-day plot - Wind Speed
WSPD
kts
5-day plot - Wind Gust
GST
kts
5-day plot - Wave Height
WVHT
ft
5-day plot - Dominant Wave Period
DPD
sec
5-day plot - Average Wave Period
APD
sec
5-day plot - Mean Wave Direction
MWD
 
5-day plot - Atmospheric Pressure
PRES
in
5-day plot - Pressure Tendency
PTDY
in
5-day plot - Air Temperature
ATMP
°F
5-day plot - Water Temperature
WTMP
°F
5-day plot - Dew Point
DEWP
°F
5-day plot - Salinity
SAL
psu
5-day plot - Visibility
VIS
nmi
5-day plot - Tide (above MLLW)
TIDE
ft
2024-02-27 01:48 pmNNW 6.0 11.1----30.09- 60.3-----
2024-02-27 01:42 pmNNW 5.1 9.9----30.09- 60.8-----
2024-02-27 01:36 pm NW 8.0 12.0----30.09- 59.9-----
2024-02-27 01:18 pm NW 7.0 11.1----30.10- 60.4-----
2024-02-27 01:12 pmNNW 9.9 14.0----30.10- 59.0-----
2024-02-27 01:06 pmNNW 9.9 13.0----30.10- 59.0-----
2024-02-27 12:54 pmNNW 8.9 12.0----30.11- 58.5-----
2024-02-27 12:30 pmWNW 7.0 11.1----30.11- 58.3-----
2024-02-27 12:24 pmWNW 8.0 11.1----30.12- 57.4-----
2024-02-27 12:18 pmWNW 8.9 11.1----30.12- 57.6-----
2024-02-27 12:12 pm W 8.0 11.1----30.12- 57.0-----
2024-02-27 12:06 pmWNW 8.9 11.1----30.12- 57.4-----
2024-02-27 12:00 pm W 1.9 7.0----30.13+0.00 58.3-----
2024-02-27 11:48 am NW 5.1 8.0----30.13- 57.2-----
2024-02-27 11:36 amNNW 7.0 8.9----30.13- 56.5-----
2024-02-27 11:24 amNNW 6.0 8.9----30.13- 55.9-----
2024-02-27 11:18 am NW 5.1 8.9----30.14- 55.6-----
2024-02-27 11:12 amNNW 6.0 8.0----30.14- 55.4-----
2024-02-27 11:06 amNNW 5.1 9.9----30.14- 55.6-----
2024-02-27 11:00 amNNW 4.1 8.0----30.14+0.03 54.9-----
2024-02-27 10:54 amNNW 6.0 8.9----30.13- 54.0-----
2024-02-27 10:48 am N 6.0 8.9----30.14- 54.5-----
2024-02-27 10:36 amNNW 5.1 8.0----30.13- 53.1-----
2024-02-27 10:30 am NW 6.0 7.0----30.13- 53.8-----
2024-02-27 10:24 amNNW 4.1 8.9----30.14- 53.4-----
2024-02-27 10:18 amNNW 7.0 9.9----30.13- 52.5-----
2024-02-27 10:12 amNNE 6.0 8.9----30.13- 52.3-----
2024-02-27 10:00 am N 6.0 8.9----30.14+0.05 52.3-----
2024-02-27 09:54 am N 6.0 11.1----30.14- 52.0-----
2024-02-27 09:48 amNNW 8.0 12.0----30.13- 51.3-----
2024-02-27 09:42 am N 6.0 9.9----30.13- 52.0-----
2024-02-27 09:36 am N 7.0 9.9----30.13- 51.1-----
2024-02-27 09:30 amNNW 8.9 11.1----30.13- 50.7-----
2024-02-27 09:24 amNNW 7.0 11.1----30.13- 50.7-----
2024-02-27 09:18 am N 8.9 11.1----30.13- 50.4-----
2024-02-27 09:12 am N 7.0 11.1----30.13- 50.4-----
2024-02-27 09:06 amNNW 8.9 11.1----30.13- 49.6-----
2024-02-27 09:00 amNNW 8.9 13.0----30.13+0.05 49.6-----
2024-02-27 08:54 am N 8.0 11.1----30.12- 50.0-----
2024-02-27 08:48 amNNW 8.0 11.1----30.12- 49.8-----
2024-02-27 08:42 amNNW 9.9 12.0----30.12- 49.5-----
2024-02-27 08:36 am N 8.9 12.0----30.11- 49.6-----
2024-02-27 08:30 am N 8.9 12.0----30.12- 49.3-----
2024-02-27 08:24 amNNW 9.9 14.0----30.11- 48.9-----
2024-02-27 08:18 am N 9.9 14.0----30.11- 48.9-----
2024-02-27 08:12 am N 7.0 13.0----30.11- 49.5-----
2024-02-27 08:06 am N 7.0 12.0----30.11- 49.1-----
2024-02-27 08:00 am N 8.0 13.0----30.11+0.05 48.9-----
2024-02-27 07:54 am N 8.0 11.1----30.11- 48.7-----
2024-02-27 07:48 am N 8.0 12.0----30.11- 48.4-----
2024-02-27 07:36 am N 7.0 11.1----30.10- 48.0-----
2024-02-27 07:30 am N 6.0 13.0----30.10- 48.0-----
2024-02-27 07:24 am N 8.0 13.0----30.09- 48.0-----
2024-02-27 07:18 am N 8.0 12.0----30.09- 48.0-----
2024-02-27 07:12 am N 8.0 13.0----30.09- 48.0-----
2024-02-27 07:06 amNNW 8.0 11.1----30.09- 48.2-----
2024-02-27 07:00 amNNW 7.0 14.0----30.09-------
2024-02-27 06:54 am N 8.9 13.0----30.09-------
2024-02-27 06:48 am N 8.0 11.1----30.08- 47.7-----
2024-02-27 06:42 am N 7.0 11.1----30.08- 47.7-----
2024-02-27 06:36 am N 7.0 9.9----30.08- 47.7-----
2024-02-27 06:30 am N 6.0 12.0----30.08- 47.8-----
2024-02-27 06:24 am N 7.0 9.9----30.08- 47.7-----
2024-02-27 06:18 am N 7.0 11.1----30.07- 47.7-----
2024-02-27 06:12 am N 8.0 9.9----30.07- 47.7-----
2024-02-27 06:06 am N 7.0 11.1----30.07- 47.8-----
2024-02-27 06:00 am N 8.0 9.9----30.07+0.04 47.8-----
2024-02-27 05:54 am N 7.0 9.9----30.07- 47.8-----
2024-02-27 05:48 am N 6.0 11.1----30.07- 48.0-----
2024-02-27 05:42 am N 8.0 9.9----30.06- 48.2-----
2024-02-27 05:36 am N 7.0 9.9----30.06- 48.2-----
2024-02-27 05:30 am N 7.0 9.9----30.06- 48.2-----
2024-02-27 05:24 am N 8.0 9.9----30.06- 48.0-----
2024-02-27 05:18 am N 6.0 9.9----30.06- 48.2-----
2024-02-27 05:00 am N 7.0 8.9----30.06+0.03 48.4-----
2024-02-27 04:54 am N 6.0 8.0----30.06- 48.2-----
2024-02-27 04:48 am N 7.0 9.9----30.06- 48.4-----
2024-02-27 04:42 am N 7.0 9.9----30.06- 48.6-----
2024-02-27 04:36 am N 6.0 9.9----30.05- 48.7-----
2024-02-27 04:30 am N 7.0 9.9----30.05- 48.7-----
2024-02-27 04:24 am N 6.0 8.9----30.05- 48.9-----
2024-02-27 04:18 am N 6.0 8.9----30.05- 48.9-----
2024-02-27 03:54 amNNE 4.1 6.0----30.05- 48.9-----
2024-02-27 03:48 amNNE 5.1 7.0----30.04- 48.9-----
2024-02-27 03:42 amNNE 4.1 6.0----30.04- 48.9-----
2024-02-27 03:36 amNNE 4.1 7.0----30.04- 48.9-----
2024-02-27 03:30 amNNE 5.1 7.0----30.04- 49.5-----
2024-02-27 03:24 am N 5.1 8.0----30.04- 49.5-----
2024-02-27 03:18 amNNE 5.1 8.0----30.04- 49.6-----
2024-02-27 03:12 am N 5.1 7.0----30.04- 49.6-----
2024-02-27 03:06 am N 4.1 6.0----30.03- 49.6-----
2024-02-27 03:00 am N 4.1 7.0----30.03+0.02------
2024-02-27 02:54 am N 4.1 7.0----30.03-------
2024-02-27 02:48 am N 5.1 8.0----30.03- 49.8-----
2024-02-27 02:42 am N 4.1 7.0----30.03- 50.0-----
2024-02-27 02:36 am N 4.1 8.9----30.03- 50.0-----
2024-02-27 02:30 am N 6.0 8.9----30.03- 50.0-----
2024-02-27 02:24 am N 7.0 9.9----30.03- 50.2-----
2024-02-27 02:18 am N 6.0 8.9----30.03- 50.0-----
2024-02-27 02:12 am NW 2.9 6.0----30.03- 49.8-----
2024-02-27 02:06 am N 7.0 8.9----30.03- 50.2-----
2024-02-27 02:00 amNNE 6.0 7.0----30.03+0.02 50.2-----
2024-02-27 01:54 amNNE 5.1 7.0----30.03- 50.9-----
2024-02-27 01:48 am NE 4.1 5.1----30.03- 51.4-----
2024-02-27 01:42 amNNE 1.0 4.1----30.03- 51.6-----
2024-02-27 01:36 amESE 2.9 4.1----30.03- 51.4-----
2024-02-27 01:30 am E 1.9 4.1----30.03- 51.1-----
2024-02-27 01:24 am- 0.0 1.9----30.03- 51.3-----
2024-02-27 01:18 am NE 2.9 4.1----30.03- 51.6-----
2024-02-27 01:06 amNNW 4.1 7.0----30.02- 51.8-----
2024-02-27 01:00 am NW 6.0 8.9----30.01+0.01 52.0-----
2024-02-27 12:54 am NW 6.0 7.0----30.02- 52.0-----
2024-02-27 12:48 am NW 5.1 7.0----30.01- 52.0-----
2024-02-27 12:36 am NW 5.1 6.0----30.01- 52.2-----
2024-02-27 12:30 amWNW 5.1 6.0----30.01- 52.5-----
2024-02-27 12:18 am NW 1.9 4.1----30.01- 52.5-----
2024-02-27 12:12 am- 0.0 1.9----30.02- 52.9-----
2024-02-27 12:06 am N 2.9 4.1----30.01- 52.9-----
2024-02-27 12:00 am NW 4.1 6.0----30.01+0.02 53.1-----
2024-02-26 11:54 pm NW 5.1 7.0----30.01- 52.9-----
2024-02-26 11:48 pm NW 6.0 9.9----30.01- 53.1-----
2024-02-26 11:42 pmWNW 7.0 8.9----30.01- 53.1-----
2024-02-26 11:30 pmWNW 8.9 12.0----30.01- 53.2-----
2024-02-26 11:18 pmWNW 9.9 12.0----30.01- 53.6-----
2024-02-26 11:12 pmWNW 8.9 12.0----30.01- 53.8-----
2024-02-26 11:06 pm W 7.0 11.1----30.01- 54.0-----
2024-02-26 11:00 pmWNW 8.0 11.1----30.01+0.03 54.0-----
2024-02-26 10:48 pmWNW 6.0 8.9----30.01- 54.1-----
2024-02-26 10:42 pmWNW 7.0 11.1----30.00- 54.0-----
2024-02-26 10:36 pmWNW 9.9 14.0----30.00- 54.1-----
2024-02-26 10:24 pmWNW 9.9 15.0----29.99- 54.1-----
2024-02-26 10:18 pmWNW 12.0 15.9----29.99- 54.1-----
2024-02-26 10:12 pmWNW 12.0 17.1----29.99- 54.1-----
2024-02-26 10:06 pmWNW 12.0 15.0----29.99- 54.1-----
2024-02-26 10:00 pmWNW 8.0 13.0----30.00+0.02 54.1-----
2024-02-26 09:54 pmWNW 5.1 8.9----30.00- 54.1-----
2024-02-26 09:48 pmWNW 7.0 11.1----30.00- 54.3-----
2024-02-26 09:42 pm NW 8.0 12.0----30.00- 54.1-----
2024-02-26 09:36 pm NW 8.0 13.0----30.00- 54.3-----
2024-02-26 09:30 pm W 6.0 13.0----30.00- 54.3-----
2024-02-26 09:24 pm W 7.0 11.1----30.00- 54.3-----
2024-02-26 09:18 pm W 6.0 9.9----30.00- 54.5-----
2024-02-26 09:12 pmWNW 7.0 12.0----30.00- 54.5-----
2024-02-26 09:06 pm W 8.9 12.0----30.00- 54.7-----
2024-02-26 09:00 pmWNW 8.9 12.0----30.00+0.02 54.9-----
2024-02-26 08:54 pmWNW 11.1 14.0----29.99- 55.0-----
2024-02-26 08:48 pmWNW 12.0 15.0----29.99- 55.0-----
2024-02-26 08:42 pmWNW 8.9 12.0----29.99- 55.2-----
2024-02-26 08:36 pmWNW 8.0 11.1----29.99- 55.2-----
2024-02-26 08:30 pm W 6.0 8.9----29.98- 55.2-----
2024-02-26 08:24 pm W 5.1 8.0----29.99- 55.2-----
2024-02-26 08:18 pmWNW 6.0 11.1----29.98- 55.2-----
2024-02-26 08:12 pm W 6.0 8.0----29.98- 55.2-----
2024-02-26 08:06 pm W 7.0 9.9----29.98- 55.4-----
2024-02-26 08:00 pmWNW 8.0 9.9----29.98+0.00 55.2-----
2024-02-26 07:54 pmWNW 8.9 11.1----29.98- 55.2-----
2024-02-26 07:48 pmWNW 8.0 9.9----29.98- 55.2-----
2024-02-26 07:42 pm W 8.0 11.1----29.98- 55.2-----
2024-02-26 07:36 pmWNW 8.9 13.0----29.97- 55.2-----
2024-02-26 07:30 pmWNW 9.9 13.0----29.97- 55.2-----
2024-02-26 07:24 pmWNW 11.1 14.0----29.98- 55.2-----
2024-02-26 07:18 pmWNW 11.1 13.0----29.97- 55.4-----
2024-02-26 07:12 pmWNW 12.0 14.0----29.98- 55.4-----
2024-02-26 07:06 pmWNW 11.1 15.0----29.98- 55.6-----
2024-02-26 07:00 pmWNW 13.0 18.1----29.98+0.02 55.8-----
2024-02-26 06:54 pmWNW 12.0 17.1----29.98- 55.9-----
2024-02-26 06:48 pmWNW 12.0 15.0----29.98- 56.5-----
2024-02-26 06:18 pm W 5.1 8.9----29.98- 57.6-----
2024-02-26 06:12 pm W 6.0 8.9----29.98- 57.7-----
2024-02-26 06:06 pm W 6.0 9.9----29.98- 57.7-----
2024-02-26 06:00 pmWNW 7.0 9.9----29.98+0.00------
2024-02-26 05:54 pmWNW 8.0 12.0----29.98-------
2024-02-26 05:48 pm NW 8.0 12.0----29.98-------
2024-02-26 05:36 pmWNW 11.1 14.0----29.97-------
2024-02-26 05:30 pmWNW 9.9 14.0----29.98- 59.0-----
2024-02-26 05:24 pmWNW 12.0 17.1----29.98- 59.0-----
2024-02-26 05:18 pmWNW 12.0 15.0----29.98- 59.5-----
2024-02-26 05:12 pmWNW 9.9 15.0----29.98- 60.3-----
2024-02-26 05:06 pmWNW 8.9 14.0----29.98- 60.3-----
2024-02-26 05:00 pmWNW 9.9 13.0----29.98-0.02 60.3-----
2024-02-26 04:54 pmWNW 8.0 12.0----29.98- 60.8-----
2024-02-26 04:48 pm NW 8.0 11.1----29.97- 60.6-----
2024-02-26 04:36 pmWNW 9.9 14.0----29.97- 60.8-----
2024-02-26 04:30 pmWNW 11.1 14.0----29.97-------
2024-02-26 04:24 pm W 7.0 9.9----29.97-------
2024-02-26 04:18 pmSSW 4.1 5.1----29.97- 60.6-----
2024-02-26 04:12 pm SW 4.1 5.1----29.97- 61.3-----
2024-02-26 04:06 pm SW 4.1 7.0----29.97- 60.8-----
2024-02-26 04:00 pm SW 6.0 7.0----29.96-0.06 60.8-----
2024-02-26 03:54 pmSSW 6.0 7.0----29.96- 60.3-----
2024-02-26 03:48 pm S 7.0 8.9----29.96- 59.9-----
2024-02-26 03:42 pm S 8.0 8.9----29.96- 59.9-----
2024-02-26 03:36 pmSSW 7.0 8.0----29.97- 59.9-----
2024-02-26 03:30 pmSSW 7.0 8.0----29.97-------
2024-02-26 03:24 pmSSW 6.0 8.9----29.97-------
2024-02-26 03:00 pmSSW 5.1 7.0----29.98- 60.4-----
2024-02-26 02:48 pmSSW 5.1 8.0----29.98- 59.4-----
2024-02-26 02:36 pmSSW 6.0 8.0----29.98- 58.5-----
2024-02-26 02:18 pmSSW 6.0 8.9----29.99- 58.8-----
2024-02-26 02:06 pmSSW 6.0 8.9----29.99- 59.2-----
2024-02-26 02:00 pm S 8.0 11.1----30.00- 59.0-----
2024-02-26 01:54 pm S 9.9 11.1----30.00- 58.8-----